Regional Weather Roundup
Issued by NWS

Home | Current Version | Previous Version | Graphics & Text | Print | Product List | Glossary On
Versions: 1 2 3 4 5 6 7 8 9 10 11 12 13 14 15 16 17 18 19 20 21 22 23 24 25 26 27 28 29 30 31 32 33 34 35 36 37 38 39 40 41 42 43 44 45 46 47 48 49 50
858
ASUS45 KBOU 201610
RWRCO

WEATHER ROUNDUP FOR COLORADO
NATIONAL WEATHER SERVICE DENVER/BOULDER CO
900 AM MST MON NOV 20 2017

NOTE: "FAIR" INDICATES FEW OR NO CLOUDS BELOW 12000 FEET WITH NO
SIGNIFICANT WEATHER AND/OR OBSTRUCTIONS TO VISIBILITY.

COZ001>005-013-030-031-201700-
...NORTHWEST COLORADO...

CITY           SKY/WX    TMP DP  RH WIND       PRES   REMARKS
CRAIG          NOT AVBL
HAYDEN         PTSUNNY   27  17  66 E10       30.14R WCI  17
MEEKER         NOT AVBL
RABBIT EARS PA CLOUDY    25   9  50 W8        30.14R WCI  16
STEAMBOAT SPGS CLOUDY    20  15  83 CALM      30.13S
WALDEN         FAIR      32  10  40 S9        30.09S WCI  24
$$

COZ006>008-011-201700-
...WEST CENTRAL VALLEYS...

CITY           SKY/WX    TMP DP  RH WIND       PRES   REMARKS
GRAND JUNCTION NOT AVBL
MONTROSE       NOT AVBL
EAGLE          FAIR      20  15  81 CALM      30.22S
RIFLE          NOT AVBL
DELTA          FAIR      29  17  62 CALM      30.21S
NUCLA          FAIR      28   7  40 CALM      30.24R
$$

COZ017>023-064>068-201700-
...SOUTHWEST COLORADO...

CITY           SKY/WX    TMP DP  RH WIND       PRES   REMARKS
DURANGO        NOT AVBL
CORTEZ         NOT AVBL
PAGOSA SPRINGS FAIR      30  17  57 CALM      30.19S
TELLURIDE      FAIR      35   1  23 CALM      30.24R
WOLF CREEK PAS FAIR      28 -13  16 W8        30.29F WCI  20
$$

COZ009-010-012-014-032>034-037-058>063-201700-
...CENTRAL COLORADO...

CITY           SKY/WX    TMP DP  RH WIND       PRES   REMARKS
ASPEN          NOT AVBL
BUENA VISTA    FAIR      46 -12   8 W5G17     30.04S
COPPER MTN     FAIR      30 -11  16 W14G21    30.20S WCI  20
BERTHOUD PASS  FAIR      21  10  63 NW44G55   30.12R WCI   0
COTTONWOOD PAS FAIR      43 -24   5 NW13G38   30.06R
GUNNISON       FAIR      14   8  77 CALM      30.27S
KREMMLING      FAIR      23  16  74 CALM      30.19R
LEADVILLE      NOT AVBL
MONARCH PASS   FAIR      25  -8  24 W44G51    30.27R WCI   5
SALIDA         FAIR      44  -7  11 SE12      30.11S
SUNLIGHT       CLOUDY    28  -2  26 SW14G21   30.24R WCI  17
WILKERSON PASS FAIR      30 -11  16 W12G25    30.09R WCI  21
$$

COZ069>075-201700-
...SAN LUIS VALLEY/SANGRE DE CRISTO MOUNTAINS...

CITY           SKY/WX    TMP DP  RH WIND       PRES   REMARKS
ALAMOSA        NOT AVBL
DEL NORTE      FAIR      30   4  33 W9        30.16S WCI  22
LA VETA PASS   FAIR      27   1  33 SW37G47     N/A  WCI   9
SAGUACHE       FAIR      23   7  50 CALM      30.17S
$$

COZ035-036-038>040-201700-
...NORTHERN COLORADO FRONT RANGE...

CITY           SKY/WX    TMP DP  RH WIND       PRES   REMARKS
DENVER INTL AP NOT AVBL
DMNS CITY PARK   N/A     52   2  13 SE7G14    29.84S
AURORA         NOT AVBL
FRONT RANGE AP PTSUNNY   50  10  20 SW7       29.85S
ERIE MUNI ARPT FAIR      55   4  13 SE5       29.87R
BOULDER MUN AP FAIR      54   5  14 NE5       29.80S
CENTENNIAL     NOT AVBL
BROOMFIELD     PTSUNNY   59  -2   8 SW28G38   29.82S
FORT COLLINS   FAIR      37  22  54 N3        29.82R
LONGMONT       NOT AVBL
$$

COZ041-046-047-076>085-087-088-201700-
...PIKES PEAK/PALMER DIVIDE AND SOUTHERN FOOTHILLS...

CITY           SKY/WX    TMP DP  RH WIND       PRES   REMARKS
COLO. SPRINGS  PTSUNNY   51   1  13 W10       29.92R
A. F. ACADEMY  FAIR      53 -10   7 W16G23    29.90F
SCHRIEVER AFB  FAIR      52  -4  10 NW5       29.91F
CHEYENNE MTN   FAIR      49   3  15 CALM      29.89S
ELLICOTT       NOT AVBL
FALCON         FAIR      50  -5  10 W12G18    29.94S
FORT CARSON    FAIR      42  13  32 E6        29.89S
LIMON          FAIR      43  14  31 N5        29.86F
MONUMENT HILL  FAIR      43   3  19 SW8       29.94S
CANON CITY     FAIR      54   1  12 NW12      29.93S
WALSENBURG     FAIR      52   3  14 SW15G23   29.97R
TRINIDAD       FAIR      45  13  27 NW9       29.96F
$$

COZ042>045-048>051-090-091-201700-
...NORTHEAST COLORADO...

CITY           SKY/WX    TMP DP  RH WIND       PRES   REMARKS
GREELEY ARPT   FAIR      30  24  78 NW3       29.82S
AKRON          NOT AVBL
BURLINGTON     NOT AVBL
WRAY           NOT AVBL
YUMA           FAIR      54   7  15 W10       29.78F
STERLING       FAIR      37  21  52 SW10      29.80R
HOLYOKE        FAIR      54  18  24 W13       29.77S
FORT MORGAN    FAIR      41  12  31 W8        29.82R
$$

COZ086-089-092>099-201700-
...SOUTHEAST COLORADO...

CITY           SKY/WX    TMP DP  RH WIND       PRES   REMARKS
PUEBLO         NOT AVBL
LA JUNTA       NOT AVBL
LAMAR          NOT AVBL
SPRINGFIELD      N/A     54  10  17 W15       29.88F
$$




USA.gov is the U.S. government's official web portal to all federal, state and local government web resources and services.